METEOR-M2 3

Last updated on Thu Jul 03 2025 00:02:22 GMT+0000 (Coordinated Universal Time)

1 57166U 23091A 25183.60898525 -.00000010 00000+0 14768-4 0 9993 2 57166 98.6600 239.7611 0005120 103.6590 256.5159 14.24002741104763
UTC large
Height (km)
Speed (km/s)
/
Latitude / Longitude
Inclination (degrees)
Orbital Period (minutes)
Azimuth
Elevation
Range (km)
Doppler Factor

Next 0 passes for location: London (51.5072 / 0.1276)

Sorry there are no passes over London.